Regional Weather Roundup
Issued by NWS

Home | Current Version | Previous Version | Graphics & Text | Print | Product List | Glossary On
Versions: 1 2 3 4 5 6 7 8 9 10 11 12 13 14 15 16 17 18 19 20 21 22 23 24 25 26 27 28 29 30 31 32 33 34 35 36 37 38 39 40 41 42 43 44 45 46 47 48 49 50
000
ASUS43 KFSD 211810
RWRSD

WEATHER ROUNDUP FOR SOUTH DAKOTA
NATIONAL WEATHER SERVICE SIOUX FALLS SD
100 PM CDT TUE OCT 21 2014

NOTE: "FAIR" INDICATES FEW OR NO CLOUDS BELOW 12,000 FEET WITH NO
SIGNIFICANT WEATHER AND/OR OBSTRUCTIONS TO VISIBILITY.


SDZ001>005-009-010-012>017-211900-
NORTHWEST AND NORTH CENTRAL SOUTH DAKOTA

CITY           SKY/WX    TMP DP  RH WIND       PRES   REMARKS
BUFFALO          N/A     77  42  28 S13       29.65F
MOBRIDGE       SUNNY     73  47  39 S20       29.77F
$$

SDZ012>016-024>037-041>051-057-063-072>074-211900-
SOUTHWEST AND SOUTH CENTRAL SOUTH DAKOTA

CITY           SKY/WX    TMP DP  RH WIND       PRES   REMARKS
RAPID CTY ARPT SUNNY     76  46  34 S16       29.80F
PIERRE         SUNNY     82  42  24 S25G35    29.81F
CUSTER         SUNNY     69  37  30 W15G24    29.93F
ELLSWORTH AFB  MOSUNNY   77  47  35 S16       29.78F
PHILIP         SUNNY     77  49  37 S16G23    29.80F
SPEARFISH      FAIR      75  43  31 SW14G33   29.80F
WINNER         FAIR      80  39  23 S32G40    29.90F
$$

SDZ004>011-016>023-039-040-211900-
NORTHEAST SOUTH DAKOTA

CITY           SKY/WX    TMP DP  RH WIND       PRES   REMARKS
ABERDEEN       SUNNY     72  43  35 S17G26    29.89F
WATERTOWN      SUNNY     69  40  34 S18G29    29.97F
SISSETON         N/A     64  42  44 S20G29    29.96F
$$

SDZ017-020-022-023-036>040-048>070-211900-
SOUTHEAST SOUTH DAKOTA

CITY           SKY/WX    TMP DP  RH WIND       PRES   REMARKS
SIOUX FALLS    SUNNY     68  42  38 S15G23    30.03F
HURON          SUNNY     72  43  35 S16G25    29.92F
CHAMBERLAIN    SUNNY     78  44  29 S21G26    29.91F
MITCHELL       SUNNY     73  45  36 S14       29.96F
YANKTON        SUNNY     72  46  40 S12       30.00F
$$

ABBREVIATIONS USED IN REMARKS
   TC - TEMPERATURE IN CELSIUS
  WCI - WIND CHILL INDEX
   HX - HEAT INDEX
  VSB - VISIBILITY




USA.gov is the U.S. government's official web portal to all federal, state and local government web resources and services.